This demonstration page uses our WeatherBlox Daily Observations layout. Learn more.

40.92945, -100.16068

Hourly Observations for March 8, 2017

Temp ( °F °C ) Dew Point ( °F °C ) Humidity (%) Winds ( mph kmh ) Pressure ( in mb ) Visibility ( mi km ) Precip ( " mm )
12:15 am 00:15 Clear 27 -3 14 -10.1 58 58 Calm 30.27 1025 10 16.0934 0 0
12:35 am 00:35 Clear 28 -2.5 14 -10.1 56 56 SW 5 7 30.27 1025 10 16.0934 0 0
12:55 am 00:55 Clear 28 -2.2 13 -10.5 53 53 WSW 3 6 30.27 1025 10 16.0934 0 0
1:15 am 01:15 Clear 28 -2.4 15 -9.5 59 59 WSW 3 6 30.27 1025 10 16.0934 0 0
1:35 am 01:35 Clear 27 -2.6 16 -8.7 63 63 W 5 7 30.27 1025 10 16.0934 0 0
1:55 am 01:55 Clear 25 -3.9 17 -8.6 70 70 Calm 30.27 1025 10 16.0934 0 0
2:15 am 02:15 Clear 26 -3.2 17 -8.5 67 67 SW 6 9 30.27 1025 10 16.0934 0 0
2:35 am 02:35 Clear 25 -4 17 -8.5 71 71 Calm 30.27 1025 10 16.0934 0 0
2:55 am 02:55 Clear 25 -4 17 -8.4 72 72 SW 5 7 30.27 1025 10 16.0934 0 0
3:15 am 03:15 Clear 25 -3.9 17 -8.5 71 71 Calm 30.24 1024 10 16.0934 0 0
3:35 am 03:35 Clear 23 -4.8 16 -8.8 74 74 NW 5 7 30.27 1025 10 16.0934 0 0
3:55 am 03:55 Clear 22 -5.3 16 -9.1 75 75 Calm 30.27 1025 10 16.0934 0 0
4:15 am 04:15 Clear 24 -4.7 16 -8.8 73 73 Calm 30.27 1025 10 16.0934 0 0
4:35 am 04:35 Partly Cloudy 23 -5.1 17 -8.1 80 80 Calm 30.27 1025 10 16.0934 0 0
4:55 am 04:55 Mostly Cloudy 26 -3.3 19 -7.5 73 73 Calm 30.24 1024 10 16.0934 0 0
5:15 am 05:15 Cloudy 26 -3.3 19 -7.5 73 73 Calm 30.24 1024 10 16.0934 0 0
5:35 am 05:35 Cloudy 24 -4.2 18 -7.7 77 77 N 7 11 30.3 1026 10 16.0934 0 0
5:55 am 05:55 Cloudy 24 -4.4 17 -8.1 76 76 N 7 11 30.3 1026 10 16.0934 0 0
6:15 am 06:15 Partly Cloudy 23 -5 16 -8.7 76 76 N 7 11 30.3 1026 10 16.0934 0 0
6:35 am 06:35 Partly Cloudy 23 -5 16 -8.7 76 76 NNE 6 9 30.3 1026 10 16.0934 0 0
6:55 am 06:55 Mostly Cloudy 22 -5.4 15 -9.2 75 75 Calm 30.3 1026 10 16.0934 0 0
7:15 am 07:15 Partly Cloudy 22 -5.7 15 -9.3 76 76 Calm 30.33 1027 10 16.0934 0 0
7:35 am 07:35 Sunny 22 -5.4 16 -8.8 77 77 Calm 30.33 1027 10 16.0934 0 0
7:55 am 07:55 Partly Cloudy 26 -3.4 18 -7.6 73 73 SW 3 6 30.3 1026 10 16.0934 0 0
8:15 am 08:15 Sunny 29 -1.7 19 -7.1 67 67 W 3 6 30.3 1026 10 16.0934 0 0
8:35 am 08:35 Sunny 31 -0.4 20 -6.6 63 63 Calm 30.27 1025 10 16.0934 0 0
8:55 am 08:55 Sunny 34 1 19 -7.2 55 55 Calm 30.27 1025 10 16.0934 0 0
9:15 am 09:15 Sunny 37 2.6 20 -6.8 50 50 Calm 30.24 1024 10 16.0934 0 0
9:35 am 09:35 Sunny 39 4.1 19 -7.3 44 44 Calm 30.24 1024 10 16.0934 0 0
9:55 am 09:55 Partly Cloudy 42 5.5 20 -6.9 41 41 E 3 6 30.18 1022 10 16.0934 0 0
10:15 am 10:15 Cloudy 44 6.6 20 -6.8 38 38 Calm 30.18 1022 10 16.0934 0 0
10:35 am 10:35 Mostly Cloudy 46 8 19 -7.1 34 34 Calm 30.15 1021 10 16.0934 0 0
10:55 am 10:55 Mostly Cloudy 47 8.5 19 -7.4 32 32 Calm 30.15 1021 10 16.0934 0 0
11:15 am 11:15 Partly Cloudy 50 10.1 20 -6.9 30 30 SSE 3 6 30.12 1020 10 16.0934 0 0
11:35 am 11:35 Mostly Cloudy 51 10.8 19 -7 28 28 Calm 30.12 1020 10 16.0934 0 0
11:55 am 11:55 Partly Cloudy 53 11.9 21 -6.3 28 28 E 6 9 30.09 1019 10 16.0934 0 0
12:15 pm 12:15 Sunny 55 13 19 -7.2 24 24 SE 8 13 30.09 1019 10 16.0934 0 0
12:35 pm 12:35 Sunny 57 13.9 17 -8.5 20 20 S 6 9 30.03 1017 10 16.0934 0 0
12:55 pm 12:55 Sunny 58 14.7 15 -9.7 18 18 SSE 7 11 30.03 1017 10 16.0934 0 0
1:15 pm 13:15 Sunny 59 15 14 -9.8 17 17 SSW 7 11 30.03 1017 10 16.0934 0 0
1:35 pm 13:35 Sunny 60 15.4 14 -10.1 16 16 SW 3 6 30 1016 10 16.0934 0 0
1:55 pm 13:55 Sunny 61 16.1 15 -9.7 16 16 SSW 9 15 30 1016 10 16.0934 0 0
2:15 pm 14:15 Sunny 62 16.5 15 -9.5 16 16 SW 10 17 30 1016 10 16.0934 0 0
2:35 pm 14:35 Sunny 62 16.8 15 -9.4 16 16 W 6 9 29.97 1015 10 16.0934 0 0
2:55 pm 14:55 Sunny 63 17 15 -9.4 16 16 WSW 6 9 29.97 1015 10 16.0934 0 0
3:15 pm 15:15 Sunny 63 17.3 16 -9.1 16 16 S 3 6 29.97 1015 10 16.0934 0 0
3:35 pm 15:35 Sunny 63 17.4 15 -9.2 15 15 W 7 11 29.97 1015 10 16.0934 0 0
3:55 pm 15:55 Sunny 64 17.7 16 -8.9 15 15 SSW 5 7 29.97 1015 10 16.0934 0 0
4:15 pm 16:15 Partly Cloudy 63 17.2 16 -8.7 16 16 W 3 6 29.97 1015 10 16.0934 0 0
4:35 pm 16:35 Cloudy 65 18.3 18 -7.8 16 16 WSW 6 9 29.94 1014 10 16.0934 0 0
4:55 pm 16:55 Cloudy 65 18.1 18 -7.6 17 17 SW 8 13 29.94 1014 10 16.0934 0 0
5:15 pm 17:15 Mostly Cloudy 65 18.3 18 -7.6 17 17 WSW 6 9 29.94 1014 10 16.0934 0 0
5:35 pm 17:35 Partly Cloudy 65 18.3 19 -7.2 17 17 SSW 8 13 29.94 1014 10 16.0934 0 0
5:55 pm 17:55 Mostly Cloudy 64 17.8 19 -7 18 18 S 5 7 29.94 1014 10 16.0934 0 0
6:15 pm 18:15 Partly Cloudy 61 16.3 20 -6.5 20 20 SW 10 17 29.97 1015 10 16.0934 0 0
6:35 pm 18:35 Sunny 58 14.3 20 -6.9 23 23 SSW 7 11 29.97 1015 10 16.0934 0 0
6:55 pm 18:55 Clear 53 11.6 20 -6.7 27 27 SSW 8 13 30 1016 10 16.0934 0 0
7:15 pm 19:15 Clear 51 10.6 19 -7 29 29 S 7 11 30 1016 7 11.26538 0 0
7:35 pm 19:35 Clear 49 9.7 20 -6.8 31 31 S 8 13 30.03 1017 10 16.0934 0 0
7:55 pm 19:55 Clear 47 8.3 20 -6.5 35 35 S 9 15 30.03 1017 10 16.0934 0 0
8:15 pm 20:15 Clear 47 8.3 19 -7 33 33 SSE 5 7 30.03 1017 10 16.0934 0 0
8:35 pm 20:35 Clear 48 8.9 19 -7.2 32 32 S 3 6 30.06 1018 10 16.0934 0 0
8:55 pm 20:55 Clear 48 8.7 19 -7.3 32 32 SSW 6 9 30.06 1018 10 16.0934 0 0
9:15 pm 21:15 Clear 50 9.8 20 -6.7 31 31 SSW 9 15 30.06 1018 10 16.0934 0 0
9:35 pm 21:35 Clear 51 10.5 19 -7 29 29 SSW 13 20 30.03 1017 10 16.0934 0 0
9:55 pm 21:55 Clear 51 10.6 19 -7 29 29 S 15 24 30.03 1017 10 16.0934 0 0
10:15 pm 22:15 Partly Cloudy 51 10.6 20 -6.7 29 29 SSW 10 17 30.03 1017 10 16.0934 0 0
10:35 pm 22:35 Partly Cloudy 52 11.2 21 -6.2 29 29 SW 13 20 30.03 1017 10 16.0934 0 0
10:55 pm 22:55 Partly Cloudy 52 11.2 21 -6 30 30 SSW 12 19 30.03 1017 10 16.0934 0 0
11:15 pm 23:15 Clear 51 10.5 22 -5.7 32 32 SW 9 15 30.03 1017 10 16.0934 0 0
11:35 pm 23:35 Clear 50 10.1 22 -5.5 33 33 SW 10 17 30.06 1018 10 16.0934 0 0
11:55 pm 23:55 Clear 48 9 22 -5.3 36 36 SW 8 13 30.06 1018 10 16.0934 0 0

Powered by AerisWeather